User: anonymous   Login
Location: Unspecified
(0.0000°N, 0.0000°E)
Time: 18:06:14
(UTC+00:00)
Language:

Landsat 7 - Orbit

View from above orbital plane
View from above orbital plane
View from above satellite
View from above satellite

Ground track
Ground track

The orbit data is extracted from the following two-line orbital elements,

1 25682U 99020A   17269.20734851  .00000120  00000-0  36747-4 0  9992
2 25682  98.2017 338.9186 0001058  78.9917 281.1418 14.57110400981304
Epoch (UTC): 26 September 2017 04:58:34
Eccentricity: 0.0001058
inclination: 98.2017°
perigee height: 702 km
apogee height: 703 km
right ascension of ascending node: 338.9186°
argument of perigee: 78.9917°
revolutions per day: 14.57110400
mean anomaly at epoch: 281.1418°
orbit number at epoch: 98130

The dashed part of the orbit path shows where the satellite is in the earth's shadow,  

DLR